STARLINK-1267, 45384

Orbit data source: Space-Track

STARLINK-1267, 45384 is a payload satellite owned by SpaceX/Seattle (US) in LEO that was launched on Wed, 18 Mar 2020 UTC via an FALCON 9 launch vehicle from the Air Force Eastern Test Range (AFETR). Payload-class satellites include a variety of spacecraft equipped with specific instruments for various scientific and technological missions. These include communications satellites like Starlink; space stations such as the ISS; scientific satellites like the Hubble; Earth observation satellites from companies like Planet Labs, Umbra, and HawkEye 360; GPS; miniature CubeSats for education and research; and military/defense satellites.

Loading next visibility...
Identifier
45384, 2020-019AA
Orbit
LEO
Country
Flag of USUS
Related business
Manufacturer
SpaceX/Seattle
Mission
Partially operational Commercial Communications
Bus & Motor
STARLINK, Unknown motor
Mass
260 kg wet, ~248 kg dry
Launch date (UTC)
2020-03-18 (6 years ago)
Launch vehicle
FALCON 9
Launch site
Air Force Eastern Test Range (AFETR)
Object type
Payload
Rocket body
Debris
Shape & HBR
Box + 1 Pan, 10.1 m
Radar Cross Section
13.562 m², Large (>1 m²)

Expand to show TLE details & history
Last TLE update: 7 hours ago

TLE from 7 hours ago
0 STARLINK-1267
1 45384U 20019AA  26169.79603056  .00043511  00000-0  41518-3 0  9992
2 45384  53.0444 355.3877 0005307 148.4725 211.6609 15.66332743346053
Epoch: 2026-06-18T19:06Z
TLE epoch observation values (Epoch: 2026-06-18T19:06:17.040Z)
Latitude
-0°
Longitude
161.78248°
Altitude
373.358 km
Speed
7.685 km/s
True Right ascension
23h 41m 33s
True Declination
0° 00' 00"
Sunlit
Object was in daylight at epoch
Visualization orbit readout
Latitude
Unknown
Longitude
Unknown
Altitude
Unknown
Speed
Unknown
Apparent Right ascension
Unknown
Apparent Declination
Unknown
Sunlit
N/A
Visualization observer readout
Local Sidereal Time
13:24:31
Azimuth
Unknown
Elevation
Unknown
Doppler factor
Unknown
Orbital elements
Apogee altitude
373.269 km
Perigee altitude
366.107 km
Semi-major axis
6,747.825 km
Eccentricity
0.00053
Inclination
53.0444°
RAAN
355.3877°
Arg. of periapsis
148.4725°
True anomaly
211.629°
Mean anomaly
211.6609°
Eccentric anomaly
211.64495°
Mean motion
3.91559 °/min
Orbital period
91.94 mins
BSTAR
0.00041518
Loading maneuver chart data...
Computing Atmospheric mass density...

Documentation

Showing up to 5 results
|